Regional Weather Roundup
Issued by NWS

Home | Current Version | Previous Version | Text Only | Print | Product List | Glossary On
Versions: 1 2 3 4 5 6 7 8 9 10 11 12 13 14 15 16 17 18 19 20 21 22 23 24 25 26 27 28 29 30 31 32 33 34 35 36 37 38 39 40 41 42 43 44 45 46 47 48 49 50
000
ASUS43 KOAX 222102
RWRNE

WEATHER ROUNDUP FOR NEBRASKA
NATIONAL WEATHER SERVICE OMAHA NE
400 PM CDT FRI MAY 22 2015

NOTES: SATELLITE DATA IS BEING USED TO AUGMENT CLOUD COVER ABOVE
       12000 FEET.
       "FAIR" INDICATES FEW OR NO CLOUDS BELOW 12,000 FEET WITH NO
       SIGNIFICANT WEATHER AND/OR OBSTRUCTIONS TO VISIBILITY.

  * THESE STATIONS DO NOT REPORT WEATHER SUCH AS RAIN...SNOW OR FOG.

NEZ001>004-019>022-054>056-222200-
NEBRASKA PANHANDLE

CITY           SKY/WX    TMP DP  RH WIND       PRES   REMARKS
SCOTTSBLUFF    CLOUDY    50  45  83 SE18G25   30.06S
ALLIANCE       CLOUDY    50  44  80 SE22      30.07F
CHADRON        CLOUDY    52  42  69 SE21G30   30.08F
SIDNEY         CLOUDY    49  47  93 E16G23    30.05F FOG
$$

NEZ057>060-069>072-079>082-222200-
SOUTHWEST NEBRASKA

CITY           SKY/WX    TMP DP  RH WIND       PRES   REMARKS
NORTH PLATTE   LGT RAIN  47  44  90 SE17G25   30.14F
IMPERIAL       CLOUDY    49  47  93 SE21      30.07F
LEXINGTON      LGT RAIN  50  46  87 E13G18    30.16F
MCCOOK         LGT RAIN  51  49  92 E16G22    30.10F FOG
$$

NEZ005>010-023>029-035>040-094-222200-
NORTH CENTRAL NEBRASKA

CITY           SKY/WX    TMP DP  RH WIND       PRES   REMARKS
VALENTINE      CLOUDY    54  42  64 S23G30    30.17S
AINSWORTH      LGT RAIN  49  45  85 S14       30.20S
BROKEN BOW     LGT RAIN  51  44  77 SE14      30.17F
ORD            CLOUDY    53  44  71 SE8       30.20F
$$

NEZ041-046>049-061>064-073>077-083>087-222200-
SOUTH CENTRAL NEBRASKA

CITY           SKY/WX    TMP DP  RH WIND       PRES   REMARKS
GRAND ISLAND   CLOUDY    58  45  62 SE9       30.19F
HASTINGS       CLOUDY    57  45  64 SE13      30.17F
KEARNEY *      CLOUDY    52  46  82 E10       30.19F
$$

NEZ011>018-030>034-042>045-222200-
NORTHEAST NEBRASKA

CITY           SKY/WX    TMP DP  RH WIND       PRES   REMARKS
NORFOLK        RAIN      54  46  74 S16G30    30.24R
BLAIR          LGT RAIN  58  46  65 SE8       30.25R
COLUMBUS *     CLOUDY    61  45  55 NE7       30.24F
FREMONT        CLOUDY    59  47  64 E9        30.24F
TEKAMAH        CLOUDY    67  44  43 S25       30.23R
$$

NEZ050>053-065>068-078-088>093-222200-
SOUTHEAST NEBRASKA

CITY           SKY/WX    TMP DP  RH WIND       PRES   REMARKS
LINCOLN        CLOUDY    64  45  49 SE10      30.21F
OMAHA EPPLEY   LGT RAIN  61  48  62 SW9       30.25R
FALLS CITY     CLOUDY    66  49  54 SE6       30.22F
$$

NEZ044-045-051>053-067-222200-
OMAHA AREA

CITY           SKY/WX    TMP DP  RH WIND       PRES   REMARKS
OMAHA EPPLEY   LGT RAIN  61  48  62 SW9       30.25R
BLAIR          LGT RAIN  58  46  65 SE8       30.25R
FREMONT        CLOUDY    59  47  64 E9        30.24F
OFFUTT AFB     CLOUDY    62  51  65 NE7       30.22F
$$


USA.gov is the U.S. government's official web portal to all federal, state and local government web resources and services.